Weather History for KVDF - November, 2012

Change the Weather History Date:

Thursday, November 29, 2012

  Actual Average (KTPA) Record (KTPA)
Temperature  
Mean Temperature 58 °F 66 °F  
Max Temperature 78 °F 75 °F 86 °F (2010)
Min Temperature 37 °F 58 °F 36 °F (1959)
Degree Days  
Heating Degree Days 8 2  
Month to date heating degree days 38  
Since 1 July heating degree days 42  
Cooling Degree Days 0 4  
Month to date cooling degree days 161  
Year to date cooling degree days 3527  
Growing Degree Days 8 (Base 50)    
Moisture  
Dew Point 50 °F    
Average Humidity 70    
Maximum Humidity 100    
Minimum Humidity 36    
Precipitation  
Precipitation 0.00 in 0.07 in 2.50 in (1890)
Month to date precipitation 1.48  
Year to date precipitation 43.76  
Sea Level Pressure  
Sea Level Pressure 30.26 in    
Wind  
Wind Speed 6 mph (NE)    
Max Wind Speed 12 mph    
Max Gust Speed 20 mph    
Visibility 9 miles    
Events      
T = Trace of Precipitation, MM = Missing Value Source: NWS Daily Summary

Daily Weather History Graph

Daily Weather History Graph

Search for Another Location

Airport or City:

Trip Planner

Search our weather history database for the weather conditions in past years. The results will help you decide how hot, cold, wet, or windy it might be!

Date:

Astronomy

Nov. 29, 2012 Rise Set
Actual Time 7:02 AM EST 5:33 PM EST
Civil Twilight 6:36 AM EST 5:58 PM EST
Nautical Twilight 6:08 AM EST 6:27 PM EST
Astronomical Twilight 5:39 AM EST 6:56 PM EST
Moon 6:35 PM EST (11/29) 7:47 AM EST (11/29)
Length of Visible Light 11h 21m
Length of Day
10h 31m
Full, 99% of the Moon is Illuminated
Nov 29
Full
Dec 6
Last Quarter
Dec 13
New
Dec 20
First Quarter
Dec 28
Full

Hourly Weather History & Observations

Time (EST) Temp. Windchill Dew Point Humidity Pressure Visibility Wind Dir Wind Speed Gust Speed Precip Events Conditions
12:15 AM 55.4 °F - 51.8 °F 88% 30.27 in 10.0 mi NNE 9.2 mph - N/A   Overcast
12:35 AM 57.2 °F - 51.8 °F 82% 30.27 in 10.0 mi NNE 8.1 mph - N/A   Overcast
12:55 AM 57.2 °F - 51.8 °F 82% 30.27 in 10.0 mi NNE 6.9 mph - N/A   Overcast
1:15 AM 57.2 °F - 51.8 °F 82% 30.27 in 10.0 mi NNE 5.8 mph - N/A   Overcast
1:35 AM 57.2 °F - 50.0 °F 77% 30.27 in 10.0 mi NNE 6.9 mph - N/A   Overcast
2:15 AM 53.6 °F - 50.0 °F 88% 30.26 in 10.0 mi NNE 4.6 mph - N/A   Scattered Clouds
2:35 AM 51.8 °F - 50.0 °F 94% 30.26 in 10.0 mi NNE 4.6 mph - N/A   Clear
2:55 AM 51.8 °F - 50.0 °F 94% 30.26 in 10.0 mi NNE 3.5 mph - N/A   Clear
3:15 AM 50.0 °F - 50.0 °F 100% 30.26 in 7.0 mi Calm Calm - N/A   Clear
3:35 AM 50.0 °F - 50.0 °F 100% 30.26 in 7.0 mi North 4.6 mph - N/A   Clear
3:55 AM 48.2 °F - 48.2 °F 100% 30.26 in 7.0 mi NNE 3.5 mph - N/A   Clear
4:15 AM 46.4 °F 44.3 °F 46.4 °F 100% 30.26 in 7.0 mi NNE 4.6 mph - N/A   Scattered Clouds
4:35 AM 46.4 °F 45.2 °F 46.4 °F 100% 30.26 in 7.0 mi NNE 3.5 mph - N/A   Clear
4:55 AM 44.6 °F 42.2 °F 44.6 °F 100% 30.26 in 7.0 mi NNE 4.6 mph - N/A   Clear
5:15 AM 44.6 °F 43.1 °F 44.6 °F 100% 30.26 in 5.0 mi NNE 3.5 mph - N/A   Clear
5:35 AM 42.8 °F 40.1 °F 42.8 °F 100% 30.26 in 5.0 mi NNE 4.6 mph - N/A   Clear
5:55 AM 42.8 °F - 42.8 °F 100% 30.26 in 5.0 mi Calm Calm - N/A   Clear
6:15 AM 41.0 °F - 41.0 °F 100% 30.26 in 5.0 mi Calm Calm - N/A   Clear
6:35 AM 41.0 °F - 41.0 °F 100% 30.27 in 4.0 mi Calm Calm - N/A   Clear
6:55 AM 39.2 °F - 39.2 °F 100% 30.27 in 4.0 mi Calm Calm - N/A   Clear
7:15 AM 39.2 °F - 39.2 °F 100% 30.27 in 3.0 mi Calm Calm - N/A   Clear
7:35 AM 37.4 °F - 37.4 °F 100% 30.28 in 3.0 mi Calm Calm - N/A   Clear
7:55 AM 39.2 °F - 39.2 °F 100% 30.28 in 4.0 mi Calm Calm - N/A   Clear
8:15 AM 41.0 °F - 41.0 °F 100% 30.29 in 5.0 mi Calm Calm - N/A   Clear
8:35 AM 46.4 °F - 44.6 °F 93% 30.29 in 10.0 mi Calm Calm - N/A   Clear
8:55 AM 57.2 °F - 51.8 °F 82% 30.29 in 10.0 mi NE 5.8 mph - N/A   Clear
9:15 AM 60.8 °F - 53.6 °F 77% 30.30 in 10.0 mi ENE 6.9 mph - N/A   Clear
9:35 AM 64.4 °F - 53.6 °F 68% 30.30 in 10.0 mi NE 6.9 mph - N/A   Clear
9:55 AM 66.2 °F - 53.6 °F 64% 30.30 in 10.0 mi ENE 4.6 mph - N/A   Clear
10:15 AM 69.8 °F - 53.6 °F 56% 30.30 in 10.0 mi NE 8.1 mph - N/A   Clear
10:35 AM 71.6 °F - 53.6 °F 53% 30.30 in 10.0 mi NE 6.9 mph - N/A   Clear
10:55 AM 73.4 °F - 53.6 °F 50% 30.29 in 10.0 mi ENE 11.5 mph - N/A   Clear
11:15 AM 75.2 °F - 53.6 °F 47% 30.29 in 10.0 mi ENE 10.4 mph - N/A   Clear
11:35 AM 77.0 °F - 53.6 °F 44% 30.28 in 10.0 mi ENE 10.4 mph 16.1 mph N/A   Clear
11:55 AM 77.0 °F - 53.6 °F 44% 30.27 in 10.0 mi East 10.4 mph 16.1 mph N/A   Clear
12:15 PM 78.8 °F - 53.6 °F 42% 30.26 in 10.0 mi ENE 8.1 mph - N/A   Clear
12:35 PM 78.8 °F - 53.6 °F 42% 30.25 in 10.0 mi NE 9.2 mph - N/A   Scattered Clouds
12:55 PM 78.8 °F - 51.8 °F 39% 30.24 in 10.0 mi ENE 11.5 mph 19.6 mph N/A   Scattered Clouds
1:15 PM 78.8 °F - 51.8 °F 39% 30.23 in 10.0 mi ENE 9.2 mph - N/A   Scattered Clouds
1:35 PM 78.8 °F - 50.0 °F 36% 30.22 in 10.0 mi ENE 9.2 mph - N/A   Scattered Clouds
1:55 PM 78.8 °F - 50.0 °F 36% 30.22 in 10.0 mi East 6.9 mph - N/A   Scattered Clouds
2:15 PM 78.8 °F - 50.0 °F 36% 30.22 in 10.0 mi NE 6.9 mph 18.4 mph N/A   Mostly Cloudy
2:35 PM 77.0 °F - 50.0 °F 39% 30.22 in 10.0 mi ENE 11.5 mph 16.1 mph N/A   Mostly Cloudy
2:55 PM 77.0 °F - 51.8 °F 41% 30.21 in 10.0 mi NE 6.9 mph - N/A   Mostly Cloudy
3:15 PM 78.8 °F - 51.8 °F 39% 30.21 in 10.0 mi NE 9.2 mph - N/A   Mostly Cloudy
3:35 PM 77.0 °F - 51.8 °F 41% 30.21 in 10.0 mi NE 6.9 mph 16.1 mph N/A   Overcast
3:55 PM 77.0 °F - 51.8 °F 41% 30.21 in 10.0 mi NE 6.9 mph - N/A   Mostly Cloudy
4:15 PM 77.0 °F - 51.8 °F 41% 30.22 in 10.0 mi NE 9.2 mph - N/A   Mostly Cloudy
4:35 PM 77.0 °F - 51.8 °F 41% 30.22 in 10.0 mi ENE 11.5 mph 16.1 mph N/A   Scattered Clouds
4:55 PM 73.4 °F - 51.8 °F 47% 30.22 in 10.0 mi ENE 8.1 mph - N/A   Scattered Clouds
5:15 PM 73.4 °F - 51.8 °F 47% 30.22 in 10.0 mi ENE 9.2 mph - N/A   Clear
5:35 PM 71.6 °F - 51.8 °F 50% 30.23 in 10.0 mi ENE 5.8 mph - N/A   Clear
5:55 PM 69.8 °F - 51.8 °F 53% 30.23 in 10.0 mi ENE 5.8 mph - N/A   Clear
6:15 PM 68.0 °F - 51.8 °F 56% 30.24 in 10.0 mi ENE 8.1 mph - N/A   Clear
6:35 PM 68.0 °F - 51.8 °F 56% 30.25 in 10.0 mi ENE 8.1 mph - N/A   Clear
6:55 PM 68.0 °F - 51.8 °F 56% 30.25 in 10.0 mi ENE 6.9 mph - N/A   Clear
7:15 PM 64.4 °F - 51.8 °F 64% 30.26 in 10.0 mi ENE 5.8 mph - N/A   Clear
7:35 PM 64.4 °F - 50.0 °F 59% 30.25 in 10.0 mi ENE 8.1 mph - N/A   Clear
7:55 PM 64.4 °F - 50.0 °F 59% 30.26 in 10.0 mi ENE 6.9 mph - N/A   Clear
8:15 PM 62.6 °F - 50.0 °F 63% 30.27 in 10.0 mi ENE 5.8 mph - N/A   Clear
8:35 PM 62.6 °F - 51.8 °F 68% 30.27 in 10.0 mi ENE 4.6 mph - N/A   Clear
8:55 PM 62.6 °F - 51.8 °F 68% 30.28 in 10.0 mi ENE 3.5 mph - N/A   Clear
9:15 PM 60.8 °F - 51.8 °F 72% 30.27 in 10.0 mi ENE 3.5 mph - N/A   Clear
9:35 PM 60.8 °F - 51.8 °F 72% 30.27 in 10.0 mi Calm Calm - N/A   Clear
9:55 PM 60.8 °F - 51.8 °F 72% 30.27 in 10.0 mi ENE 3.5 mph - N/A   Clear
10:15 PM 59.0 °F - 51.8 °F 77% 30.27 in 10.0 mi ENE 3.5 mph - N/A   Clear
10:35 PM 59.0 °F - 51.8 °F 77% 30.27 in 10.0 mi Calm Calm - N/A   Clear
11:15 PM 59.0 °F - 51.8 °F 77% 30.26 in 10.0 mi ENE 4.6 mph - N/A   Clear
11:35 PM 59.0 °F - 51.8 °F 77% 30.26 in 10.0 mi ENE 3.5 mph - N/A   Clear
11:55 PM 59.0 °F - 51.8 °F 77% 30.26 in 10.0 mi Calm Calm - N/A   Clear